This is the latest recevied weather packets stored in our database for station/object DM4XI-13. If no packets are shown the sender has not sent any weather packets the latest 10 day(s).
| Time | Temp. | Humidity | Pressure | Rain* | Wind** | Luminosity | Snow |
|---|---|---|---|---|---|---|---|
| 1788566445 | 20° C | 70% | 1014.7 hPa | 0 mm | 0.89 m/s, 30° | 0 W/m² | - |
| 1788566385 | 20° C | 70% | 1014.7 hPa | 0 mm | 1.79 m/s, 318° | 0 W/m² | - |
| 1788566325 | 20° C | 70% | 1014.7 hPa | 0 mm | 1.79 m/s, 296° | 0 W/m² | - |
| 1788566265 | 20° C | 70% | 1014.6 hPa | 0 mm | 1.79 m/s, 298° | 0 W/m² | - |
| 1788566205 | 20° C | 70% | 1014.7 hPa | 0 mm | 3.13 m/s, 307° | 0 W/m² | - |
| 1788566145 | 20° C | 70% | 1014.6 hPa | 0 mm | 1.34 m/s, 318° | 0 W/m² | - |
| 1788566085 | 20° C | 70% | 1014.5 hPa | 0 mm | 1.79 m/s, 311° | 0 W/m² | - |
| 1788566025 | 20° C | 70% | 1014.6 hPa | 0 mm | 1.79 m/s, 297° | 0 W/m² | - |
| 1788565965 | 20° C | 70% | 1014.7 hPa | 0 mm | 2.24 m/s, 336° | 0 W/m² | - |
| 1788565905 | 20° C | 70% | 1014.6 hPa | 0 mm | 2.68 m/s, 299° | 0 W/m² | - |
| 1788565845 | 20° C | 70% | 1014.5 hPa | 0 mm | 2.24 m/s, 306° | 0 W/m² | - |
| 1788565785 | 20° C | 70% | 1014.4 hPa | 0 mm | 1.34 m/s, 301° | 0 W/m² | - |
| 1788565725 | 20° C | 70% | 1014.4 hPa | 0 mm | 1.79 m/s, 304° | 0 W/m² | - |
| 1788565675 | 20° C | 70% | 1014.6 hPa | 0 mm | 1.34 m/s, 350° | 0 W/m² | - |
| 1788565605 | 20.56° C | 69% | 1014.4 hPa | 0 mm | 1.79 m/s, 359° | 0 W/m² | - |
| 1788565545 | 20.56° C | 69% | 1014.4 hPa | 0 mm | 1.79 m/s, 355° | 0 W/m² | - |
| 1788565485 | 20.56° C | 69% | 1014.3 hPa | 0 mm | 1.79 m/s, 325° | 0 W/m² | - |
| 1788565425 | 20.56° C | 69% | 1014.4 hPa | 0 mm | 3.13 m/s, 283° | 0 W/m² | - |
| 1788565365 | 20.56° C | 69% | 1014.4 hPa | 0 mm | 1.79 m/s, 289° | 0 W/m² | - |
| 1788565305 | 20.56° C | 69% | 1014.4 hPa | 0 mm | 1.79 m/s, 244° | 0 W/m² | - |
| 1788565245 | 20.56° C | 68% | 1014.5 hPa | 0 mm | 2.68 m/s, 358° | 0 W/m² | - |
| 1788565185 | 20.56° C | 68% | 1014.5 hPa | 0 mm | 3.58 m/s, 351° | 0 W/m² | - |
| 1788565125 | 20.56° C | 68% | 1014.5 hPa | 0 mm | 2.24 m/s, 334° | 0 W/m² | - |
| 1788565065 | 21.11° C | 68% | 1014.2 hPa | 0 mm | 1.79 m/s, 319° | 0 W/m² | - |
| 1788565005 | 21.11° C | 67% | 1014.5 hPa | 0 mm | 2.68 m/s, 13° | 0 W/m² | - |
* Rain latest hour (hover to see other rain measurements)
** Current wind speed in m/s (hover to see current wind gust speed)